Regional Weather Roundup
Issued by NWS

Home | Current Version | Previous Version | Graphics & Text | Print | Product List | Glossary On
Versions: 1 2 3 4 5 6 7 8 9 10 11 12 13 14 15 16 17 18 19 20 21 22 23 24 25 26 27 28 29 30 31 32 33 34 35 36 37 38 39 40 41 42 43 44 45 46 47 48 49 50
000
ASUS43 KFSD 192202
RWRSD

WEATHER ROUNDUP FOR SOUTH DAKOTA
NATIONAL WEATHER SERVICE SIOUX FALLS SD
500 PM CDT SAT APR 19 2014

NOTE: "FAIR" INDICATES FEW OR NO CLOUDS BELOW 12,000 FEET WITH NO
SIGNIFICANT WEATHER AND/OR OBSTRUCTIONS TO VISIBILITY.


SDZ001>005-009-010-012>017-192300-
NORTHWEST AND NORTH CENTRAL SOUTH DAKOTA

CITY           SKY/WX    TMP DP  RH WIND       PRES   REMARKS
FAITH            N/A     66  24  20 W10       29.98S
MOBRIDGE       SUNNY     69  26  20 NW17      29.93S
$$

SDZ012>016-024>037-041>051-057-063-072>074-192300-
SOUTHWEST AND SOUTH CENTRAL SOUTH DAKOTA

CITY           SKY/WX    TMP DP  RH WIND       PRES   REMARKS
RAPID CTY ARPT MOSUNNY   66  36  32 SE17      29.98F
PIERRE         MOSUNNY   68  20  16 W8        29.98F
CUSTER         MOSUNNY   58  24  27 VRB7      30.02F
ELLSWORTH AFB  MOSUNNY   65  34  31 SE15G21   29.98F
PHILIP         PTSUNNY   66  21  18 VRB3      29.99F
PINE RIDGE     PTSUNNY   64  24  21 E7        30.01F
WINNER         FAIR      69  20  15 NW6       30.00F
$$

SDZ004>011-016>023-039-040-192300-
NORTHEAST SOUTH DAKOTA

CITY           SKY/WX    TMP DP  RH WIND       PRES   REMARKS
ABERDEEN       MOSUNNY   70  24  17 W12G24    29.95S
WATERTOWN      MOSUNNY   66  26  22 NW10      29.97F
SISSETON         N/A     70  27  20 NW13      29.93F
$$

SDZ017-020-022-023-036>040-048>070-192300-
SOUTHEAST SOUTH DAKOTA

CITY           SKY/WX    TMP DP  RH WIND       PRES   REMARKS
SIOUX FALLS    CLOUDY    69  35  28 NW6       29.99S
HURON          MOSUNNY   69  24  18 NW6       29.98S
CHAMBERLAIN      N/A     70  24  17 W8        30.00F
MITCHELL       PTSUNNY   66  24  20 CALM      30.01R
YANKTON        PTSUNNY   70  43  37 NW6       29.99F
$$

ABBREVIATIONS USED IN REMARKS
   TC - TEMPERATURE IN CELSIUS
  WCI - WIND CHILL INDEX
   HX - HEAT INDEX
  VSB - VISIBILITY




USA.gov is the U.S. government's official web portal to all federal, state and local government web resources and services.